User: anonymous   Login
Location: Caltech
(34.1382°N, 118.1253°W)
Time: 18:24:17
(UTC-07:00)
Language:

AO-27 - Orbit

View from above orbital plane
View from above orbital plane
View from above satellite
View from above satellite

Ground track
Ground track

The orbit data is extracted from the following two-line orbital elements,

1 22825U 93061C   16121.85391914 +.00000046 +00000-0 +35265-4 0  9994
2 22825 098.7549 077.8200 0009555 095.3973 264.8299 14.29951751178209
Epoch (UTC): 30 April 2016 20:29:38
Eccentricity: 0.0009555
inclination: 98.7549°
perigee height: 785 km
apogee height: 799 km
right ascension of ascending node: 77.8200°
argument of perigee: 95.3973°
revolutions per day: 14.29951751
mean anomaly at epoch: 264.8299°
orbit number at epoch: 17820

The dashed part of the orbit path shows where the satellite is in the earth's shadow,  

DLR